Find Starlink 2624

NORAD ID: 48358 Int'l Des: 2021-038 Owner: SPXS Country: US Constellation: starlink operational
LEOCIRCULAR

リアルタイム位置

3D地球を読み込み中...

Starlink 2624について

説明を読み込み中...

次回通過

Passes for default location (London). Set your location on the main map for personalized predictions.

高度履歴

Loading altitude history...

軌道要素

1 48358U 21038F 26122.68777748 .00007137 00000-0 24129-3 0 9998
2 48358 53.1599 107.0827 0001533 81.4671 278.6505 15.31731171275340
Epoch: May 2, 2026 • Age: 12 hours

現在のステータス

高度 472.3 km
速度 7.63 km/s
衛星直下点 33.41°N, 26.61°W
打ち上げ日 May 4, 2021
運用期間 4.9 years
タイプ internet

技術仕様

分類 Payload
質量 260.00 kg
乾燥質量 248.00 kg
総質量 260.00 kg
長さ 0.20 m
直径 2.80 m
スパン 9.00 m
形状 Box + pan
製造者 SPXS
バスタイプ Starlink
フェーズステータス In Orbit
所有者/国 SPXS/US

Most Searched